| time (UTC) | temp C | wind direction | speed KPH | gust KPH | rain 1hr cm | rain 24hr cm | rain mn cm | humidity % | barometer mb |
| 20260507002502 | 13 | 0.0 | 0.0 | 0.00 | 0.00 | 0.00 | 99 | 1003.6 | |
| 20260507002002 | 13 | 0.0 | 0.0 | 0.00 | 0.00 | 0.00 | 98 | 1003.7 | |
| 20260507001502 | 13 | 0.0 | 0.0 | 0.00 | 0.00 | 0.00 | 10 | 1003.6 | |
| 20260507001002 | 13 | 0.0 | 0.0 | 0.00 | 0.00 | 0.00 | 99 | 1003.7 | |
| 20260507000502 | 13 | 0.0 | 0.0 | 0.00 | 0.00 | 0.00 | 96 | 1003.6 | |
| 20260507000002 | 13 | 0.0 | 0.0 | 0.00 | 0.00 | 0.00 | 98 | 1003.8 | |
| 20260506235502 | 13 | 0.0 | 0.0 | 0.00 | 0.00 | 0.00 | 94 | 1003.8 | |
| 20260506235002 | 13 | 0.0 | 0.0 | 0.00 | 0.00 | 0.00 | 89 | 1003.9 | |
| 20260506234502 | 13 | 0.0 | 0.0 | 0.00 | 0.00 | 0.00 | 48 | 1003.6 | |
| 20260506234002 | 14 | 0.0 | 0.0 | 0.00 | 0.00 | 0.00 | 64 | 1003.9 | |
| 20260506233502 | 14 | 0.0 | 0.0 | 0.00 | 0.00 | 0.00 | 70 | 1004.1 | |
| 20260506233002 | 14 | 0.0 | 0.0 | 0.00 | 0.00 | 0.00 | 72 | 1004.0 | |
| 20260506232502 | 14 | 0.0 | 0.0 | 0.00 | 0.00 | 0.00 | 72 | 1004.0 | |
| 20260506232002 | 14 | 0.0 | 0.0 | 0.00 | 0.00 | 0.00 | 71 | 1003.8 | |
| 20260506231502 | 13 | 0.0 | 0.0 | 0.00 | 0.00 | 0.00 | 69 | 1003.7 | |
| 20260506231002 | 13 | 0.0 | 0.0 | 0.00 | 0.00 | 0.00 | 67 | 1003.8 | |
| 20260506230501 | 13 | 0.0 | 0.0 | 0.00 | 0.00 | 0.00 | 67 | 1003.7 | |
| 20260506230002 | 13 | 0.0 | 0.0 | 0.00 | 0.00 | 0.00 | 70 | 1003.5 | |
| 20260506225501 | 13 | 0.0 | 0.0 | 0.00 | 0.00 | 0.00 | 72 | 1003.4 | |
| 20260506225002 | 13 | 0.0 | 0.0 | 0.00 | 0.00 | 0.00 | 72 | 1003.3 | |
| 20260506224501 | 13 | 0.0 | 0.0 | 0.00 | 0.00 | 0.00 | 73 | 1003.4 | |
| 20260506224002 | 13 | 0.0 | 0.0 | 0.00 | 0.00 | 0.00 | 72 | 1003.6 | |
| 20260506223501 | 13 | 0.0 | 0.0 | 0.00 | 0.00 | 0.00 | 72 | 1003.5 | |
| 20260506223002 | 13 | 0.0 | 0.0 | 0.00 | 0.00 | 0.00 | 74 | 1003.4 | |
| 20260506222502 | 13 | 0.0 | 0.0 | 0.00 | 0.00 | 0.00 | 74 | 1003.4 | |
| 20260506222002 | 13 | 0.0 | 0.0 | 0.00 | 0.00 | 0.00 | 73 | 1003.5 | |
| 20260506221501 | 13 | 0.0 | 0.0 | 0.00 | 0.00 | 0.00 | 71 | 1003.5 | |
| 20260506221002 | 13 | 0.0 | 0.0 | 0.00 | 0.00 | 0.00 | 73 | 1003.4 | |
| 20260506220501 | 13 | 0.0 | 0.0 | 0.00 | 0.00 | 0.00 | 73 | 1003.4 | |
| 20260506220002 | 13 | 0.0 | 0.0 | 0.00 | 0.00 | 0.00 | 76 | 1003.2 | |
| 20260506215501 | 13 | 0.0 | 0.0 | 0.00 | 0.00 | 0.00 | 78 | 1003.2 | |
| 20260506215002 | 13 | 0.0 | 0.0 | 0.00 | 0.00 | 0.00 | 77 | 1003.4 | |
| 20260506214501 | 13 | 0.0 | 0.0 | 0.00 | 0.00 | 0.00 | 80 | 1003.4 | |
| 20260506214002 | 13 | 0.0 | 0.0 | 0.00 | 0.00 | 0.00 | 79 | 1003.4 | |
| 20260506213501 | 13 | 0.0 | 0.0 | 0.00 | 0.00 | 0.00 | 78 | 1003.5 | |
| 20260506213002 | 13 | 0.0 | 0.0 | 0.00 | 0.00 | 0.00 | 80 | 1003.6 | |
| 20260506212501 | 13 | 0.0 | 0.0 | 0.00 | 0.00 | 0.00 | 80 | 1003.6 | |
| 20260506212002 | 13 | 0.0 | 0.0 | 0.00 | 0.00 | 0.00 | 80 | 1003.4 | |
| 20260506211501 | 13 | 0.0 | 0.0 | 0.00 | 0.00 | 0.00 | 80 | 1003.4 | |
| 20260506211002 | 13 | 0.0 | 0.0 | 0.00 | 0.00 | 0.00 | 82 | 1003.3 | |
| 20260506210501 | 13 | 0.0 | 0.0 | 0.00 | 0.00 | 0.00 | 84 | 1003.3 | |
| 20260506210002 | 13 | 0.0 | 0.0 | 0.00 | 0.00 | 0.00 | 85 | 1003.3 | |
| 20260506205501 | 13 | 0.0 | 0.0 | 0.00 | 0.00 | 0.00 | 86 | 1003.2 | |
| 20260506205002 | 13 | 0.0 | 0.0 | 0.00 | 0.00 | 0.00 | 87 | 1003.3 | |
| 20260506204501 | 13 | 0.0 | 0.0 | 0.00 | 0.00 | 0.00 | 90 | 1003.3 | |
| 20260506204002 | 13 | 0.0 | 0.0 | 0.00 | 0.00 | 0.00 | 91 | 1003.5 | |
| 20260506203501 | 13 | 0.0 | 0.0 | 0.00 | 0.00 | 0.00 | 90 | 1003.5 | |
| 20260506203002 | 13 | 0.0 | 0.0 | 0.00 | 0.00 | 0.00 | 92 | 1003.6 | |
| 20260506202501 | 14 | 0.0 | 0.0 | 0.00 | 0.00 | 0.00 | 97 | 1003.7 | |
| 20260506202007 | 14 | 0.0 | 0.0 | 0.00 | 0.00 | 0.00 | 99 | 1003.6 | |
| 20260506201501 | 14 | 0.0 | 0.0 | 0.00 | 0.00 | 0.00 | 10 | 1003.7 | |
| 20260506201002 | 14 | 0.0 | 0.0 | 0.00 | 0.00 | 0.00 | 10 | 1003.6 | |
| 20260506200501 | 14 | 0.0 | 0.0 | 0.00 | 0.00 | 0.00 | 10 | 1003.6 | |
| 20260506200002 | 14 | 0.0 | 0.0 | 0.00 | 0.00 | 0.00 | 10 | 1003.5 | |
| 20260506195501 | 14 | 0.0 | 0.0 | 0.00 | 0.00 | 0.00 | 10 | 1003.5 | |
| 20260506195002 | 14 | 0.0 | 0.0 | 0.00 | 0.00 | 0.00 | 10 | 1003.5 | |
| 20260506194501 | 14 | 0.0 | 0.0 | 0.00 | 0.00 | 0.00 | 10 | 1003.5 | |
| 20260506194002 | 14 | 0.0 | 0.0 | 0.00 | 0.00 | 0.00 | 10 | 1003.5 | |
| 20260506193501 | 14 | 0.0 | 0.0 | 0.00 | 0.00 | 0.00 | 10 | 1003.5 | |
| 20260506193002 | 15 | 0.0 | 0.0 | 0.00 | 0.00 | 0.00 | 10 | 1003.5 | |
| 20260506192002 | 15 | 0.0 | 0.0 | 0.00 | 0.00 | 0.00 | 10 | 1003.5 | |
| 20260506191002 | 15 | 0.0 | 0.0 | 0.00 | 0.00 | 0.00 | 10 | 1003.4 | |
| 20260506190502 | 15 | 0.0 | 0.0 | 0.00 | 0.00 | 0.00 | 10 | 1003.4 | |
| 20260506190001 | 15 | 0.0 | 0.0 | 0.00 | 0.00 | 0.00 | 10 | 1003.3 | |
| 20260506185502 | 15 | 0.0 | 0.0 | 0.00 | 0.00 | 0.00 | 10 | 1003.3 | |
| 20260506185001 | 16 | 0.0 | 0.0 | 0.00 | 0.00 | 0.00 | 10 | 1003.3 | |
| 20260506184502 | 16 | 0.0 | 0.0 | 0.00 | 0.00 | 0.00 | 10 | 1003.2 | |
| 20260506184002 | 16 | 0.0 | 0.0 | 0.00 | 0.00 | 0.00 | 10 | 1003.1 | |
| 20260506183502 | 16 | 0.0 | 0.0 | 0.00 | 0.00 | 0.00 | 10 | 1003.1 | |
| 20260506183002 | 16 | 0.0 | 0.0 | 0.00 | 0.00 | 0.00 | 10 | 1003.0 | |
| 20260506182501 | 16 | 0.0 | 0.0 | 0.00 | 0.00 | 0.00 | 10 | 1002.9 | |
| 20260506182002 | 16 | 0.0 | 0.0 | 0.00 | 0.00 | 0.00 | 10 | 1002.8 | |
| 20260506181501 | 16 | 0.0 | 0.0 | 0.00 | 0.00 | 0.00 | 10 | 1002.8 | |
| 20260506181002 | 16 | 0.0 | 0.0 | 0.00 | 0.00 | 0.00 | 10 | 1002.8 | |
| 20260506180501 | 17 | 0.0 | 0.0 | 0.00 | 0.00 | 0.00 | 10 | 1002.8 | |
| 20260506180002 | 17 | 0.0 | 0.0 | 0.00 | 0.00 | 0.00 | 10 | 1002.9 | |
| 20260506175502 | 17 | 0.0 | 0.0 | 0.00 | 0.00 | 0.00 | 10 | 1002.8 | |
| 20260506175002 | 18 | 0.0 | 0.0 | 0.00 | 0.00 | 0.00 | 10 | 1002.9 | |
| 20260506174502 | 18 | 0.0 | 0.0 | 0.00 | 0.00 | 0.00 | 10 | 1002.8 | |
| 20260506174002 | 18 | 0.0 | 0.0 | 0.00 | 0.00 | 0.00 | 10 | 1002.8 | |
| 20260506173502 | 19 | 0.0 | 0.0 | 0.00 | 0.00 | 0.00 | 10 | 1002.8 | |
| 20260506173002 | 18 | 0.0 | 0.0 | 0.00 | 0.00 | 0.00 | 10 | 1002.7 | |
| 20260506172502 | 18 | 0.0 | 0.0 | 0.00 | 0.00 | 0.00 | 10 | 1002.7 | |
| 20260506172002 | 18 | 0.0 | 0.0 | 0.00 | 0.00 | 0.00 | 10 | 1002.8 | |
| 20260506171502 | 18 | 0.0 | 0.0 | 0.00 | 0.00 | 0.00 | 10 | 1002.6 | |
| 20260506171001 | 18 | 0.0 | 0.0 | 0.00 | 0.00 | 0.00 | 10 | 1002.6 | |
| 20260506170502 | 18 | 0.0 | 0.0 | 0.00 | 0.00 | 0.00 | 10 | 1002.4 | |
| 20260506170002 | 18 | 0.0 | 0.0 | 0.00 | 0.00 | 0.00 | 10 | 1002.5 | |
| 20260506165502 | 18 | 0.0 | 0.0 | 0.00 | 0.00 | 0.00 | 10 | 1002.4 | |
| 20260506165002 | 18 | 0.0 | 0.0 | 0.00 | 0.00 | 0.00 | 10 | 1002.5 | |
| 20260506164502 | 19 | 0.0 | 0.0 | 0.00 | 0.00 | 0.00 | 10 | 1002.4 | |
| 20260506164002 | 20 | 0.0 | 0.0 | 0.00 | 0.00 | 0.00 | 10 | 1002.4 | |
| 20260506163501 | 20 | 0.0 | 0.0 | 0.00 | 0.00 | 0.00 | 10 | 1002.5 | |
| 20260506163002 | 20 | 0.0 | 0.0 | 0.00 | 0.00 | 0.00 | 10 | 1002.5 | |
| 20260506162502 | 20 | 0.0 | 0.0 | 0.00 | 0.00 | 0.00 | 10 | 1002.4 | |
| 20260506162002 | 20 | 0.0 | 0.0 | 0.00 | 0.00 | 0.00 | 10 | 1002.5 | |
| 20260506161502 | 21 | 0.0 | 0.0 | 0.00 | 0.00 | 0.00 | 10 | 1002.4 | |
| 20260506161002 | 21 | 0.0 | 0.0 | 0.00 | 0.00 | 0.00 | 10 | 1002.4 | |
| 20260506160502 | 21 | 0.0 | 0.0 | 0.00 | 0.00 | 0.00 | 10 | 1002.4 | |
| 20260506160001 | 21 | 0.0 | 0.0 | 0.00 | 0.00 | 0.00 | 10 | 1002.5 | |
| 20260506155502 | 22 | 0.0 | 0.0 | 0.00 | 0.00 | 0.00 | 10 | 1002.4 | |
| 20260506155002 | 22 | 0.0 | 0.0 | 0.00 | 0.00 | 0.00 | 10 | 1002.4 | |
| 20260506154502 | 22 | 0.0 | 0.0 | 0.00 | 0.00 | 0.00 | 10 | 1002.4 | |
| 20260506154002 | 22 | 0.0 | 0.0 | 0.00 | 0.00 | 0.00 | 10 | 1002.4 | |
| 20260506153501 | 22 | 0.0 | 0.0 | 0.00 | 0.00 | 0.00 | 10 | 1002.5 | |
| 20260506153002 | 22 | 0.0 | 0.0 | 0.00 | 0.00 | 0.00 | 10 | 1002.5 | |
| 20260506152501 | 23 | 0.0 | 0.0 | 0.00 | 0.00 | 0.00 | 10 | 1002.6 | |
| 20260506152002 | 22 | 0.0 | 0.0 | 0.00 | 0.00 | 0.00 | 10 | 1002.6 | |
| 20260506151502 | 23 | 0.0 | 0.0 | 0.00 | 0.00 | 0.00 | 10 | 1002.5 | |
| 20260506151002 | 22 | 0.0 | 0.0 | 0.00 | 0.00 | 0.00 | 10 | 1002.6 | |
| 20260506150502 | 22 | 0.0 | 0.0 | 0.00 | 0.00 | 0.00 | 10 | 1002.5 | |
| 20260506150002 | 23 | 0.0 | 0.0 | 0.00 | 0.00 | 0.00 | 10 | 1002.6 | |
| 20260506145502 | 23 | 0.0 | 0.0 | 0.00 | 0.00 | 0.00 | 10 | 1002.7 | |
| 20260506145002 | 23 | 0.0 | 0.0 | 0.00 | 0.00 | 0.00 | 10 | 1002.6 | |
| 20260506144502 | 23 | 0.0 | 0.0 | 0.00 | 0.00 | 0.00 | 10 | 1002.7 | |
| 20260506144002 | 23 | 0.0 | 0.0 | 0.00 | 0.00 | 0.00 | 10 | 1002.8 | |
| 20260506143502 | 23 | 0.0 | 0.0 | 0.00 | 0.00 | 0.00 | 10 | 1002.7 | |
| 20260506143002 | 23 | 0.0 | 0.0 | 0.00 | 0.00 | 0.00 | 10 | 1002.6 | |
| 20260506142501 | 23 | 0.0 | 0.0 | 0.00 | 0.00 | 0.00 | 10 | 1002.7 | |
| 20260506142002 | 23 | 0.0 | 0.0 | 0.00 | 0.00 | 0.00 | 10 | 1002.7 | |
| 20260506140502 | 23 | 0.0 | 0.0 | 0.00 | 0.00 | 0.00 | 10 | 1002.6 | |
| 20260506140002 | 23 | 0.0 | 0.0 | 0.00 | 0.00 | 0.00 | 10 | 1002.6 | |
| 20260506135002 | 23 | 0.0 | 0.0 | 0.00 | 0.00 | 0.00 | 10 | 1002.8 | |
| 20260506134502 | 23 | 0.0 | 0.0 | 0.00 | 0.00 | 0.00 | 10 | 1002.7 | |
| 20260506134002 | 23 | 0.0 | 0.0 | 0.00 | 0.00 | 0.00 | 10 | 1002.7 | |
| 20260506133502 | 24 | 0.0 | 0.0 | 0.00 | 0.00 | 0.00 | 10 | 1002.7 | |
| 20260506133002 | 24 | 0.0 | 0.0 | 0.00 | 0.00 | 0.00 | 10 | 1002.7 | |
| 20260506132502 | 24 | 0.0 | 0.0 | 0.00 | 0.00 | 0.00 | 10 | 1002.7 | |
| 20260506132002 | 24 | 0.0 | 0.0 | 0.00 | 0.00 | 0.00 | 10 | 1002.7 | |
| 20260506131502 | 24 | 0.0 | 0.0 | 0.00 | 0.00 | 0.00 | 10 | 1002.6 | |
| 20260506131002 | 23 | 0.0 | 0.0 | 0.00 | 0.00 | 0.00 | 10 | 1002.8 | |
| 20260506130502 | 23 | 0.0 | 0.0 | 0.00 | 0.00 | 0.00 | 10 | 1002.7 | |
| 20260506130002 | 23 | 0.0 | 0.0 | 0.00 | 0.00 | 0.00 | 10 | 1002.7 | |
| 20260506125502 | 23 | 0.0 | 0.0 | 0.00 | 0.00 | 0.00 | 10 | 1002.8 | |
| 20260506125007 | 23 | 0.0 | 0.0 | 0.00 | 0.00 | 0.00 | 10 | 1002.8 | |
| 20260506124502 | 23 | 0.0 | 0.0 | 0.00 | 0.00 | 0.00 | 10 | 1002.7 | |
| 20260506124002 | 24 | 0.0 | 0.0 | 0.00 | 0.00 | 0.00 | 10 | 1002.8 | |
| 20260506123501 | 23 | 0.0 | 0.0 | 0.00 | 0.00 | 0.00 | 10 | 1002.7 | |
| 20260506123001 | 24 | 0.0 | 0.0 | 0.00 | 0.00 | 0.00 | 10 | 1002.7 | |
| 20260506122502 | 23 | 0.0 | 0.0 | 0.00 | 0.00 | 0.00 | 10 | 1002.9 | |
| 20260506122002 | 23 | 0.0 | 0.0 | 0.00 | 0.00 | 0.00 | 10 | 1002.9 | |
| 20260506121502 | 23 | 0.0 | 0.0 | 0.00 | 0.00 | 0.00 | 10 | 1002.9 | |
| 20260506121002 | 23 | 0.0 | 0.0 | 0.00 | 0.00 | 0.00 | 10 | 1002.9 | |
| 20260506120502 | 23 | 0.0 | 0.0 | 0.00 | 0.00 | 0.00 | 10 | 1003.0 | |
| 20260506120002 | 23 | 0.0 | 0.0 | 0.00 | 0.00 | 0.00 | 10 | 1002.9 | |
| 20260506115501 | 22 | 0.0 | 0.0 | 0.00 | 0.00 | 0.00 | 10 | 1002.9 | |
| 20260506115002 | 22 | 0.0 | 0.0 | 0.00 | 0.00 | 0.00 | 10 | 1002.9 | |
| 20260506114501 | 22 | 0.0 | 0.0 | 0.00 | 0.00 | 0.00 | 10 | 1002.9 | |
| 20260506114002 | 22 | 0.0 | 0.0 | 0.00 | 0.00 | 0.00 | 10 | 1002.8 | |
| 20260506113002 | 22 | 0.0 | 0.0 | 0.00 | 0.00 | 0.00 | 10 | 1003.0 | |
| 20260506112502 | 23 | 0.0 | 0.0 | 0.00 | 0.00 | 0.00 | 10 | 1002.8 | |
| 20260506112001 | 23 | 0.0 | 0.0 | 0.00 | 0.00 | 0.00 | 10 | 1002.8 | |
| 20260506111502 | 23 | 0.0 | 0.0 | 0.00 | 0.00 | 0.00 | 10 | 1002.8 | |
| 20260506111002 | 23 | 0.0 | 0.0 | 0.00 | 0.00 | 0.00 | 10 | 1002.6 | |
| 20260506110502 | 23 | 0.0 | 0.0 | 0.00 | 0.00 | 0.00 | 10 | 1002.6 | |
| 20260506110002 | 23 | 0.0 | 0.0 | 0.00 | 0.00 | 0.00 | 10 | 1002.7 | |
| 20260506105502 | 22 | 0.0 | 0.0 | 0.00 | 0.00 | 0.00 | 10 | 1002.8 | |
| 20260506105002 | 23 | 0.0 | 0.0 | 0.00 | 0.00 | 0.00 | 10 | 1002.7 | |
| 20260506104502 | 22 | 0.0 | 0.0 | 0.00 | 0.00 | 0.00 | 10 | 1002.6 | |
| 20260506104002 | 23 | 0.0 | 0.0 | 0.00 | 0.00 | 0.00 | 10 | 1002.7 | |
| 20260506103502 | 22 | 0.0 | 0.0 | 0.00 | 0.00 | 0.00 | 10 | 1002.6 | |
| 20260506103002 | 21 | 0.0 | 0.0 | 0.00 | 0.00 | 0.00 | 10 | 1002.6 | |
| 20260506102502 | 22 | 0.0 | 0.0 | 0.00 | 0.00 | 0.00 | 10 | 1002.8 | |
| 20260506102002 | 22 | 0.0 | 0.0 | 0.00 | 0.00 | 0.00 | 10 | 1002.5 | |
| 20260506101502 | 21 | 0.0 | 0.0 | 0.00 | 0.00 | 0.00 | 10 | 1002.7 | |
| 20260506100502 | 21 | 0.0 | 0.0 | 0.00 | 0.00 | 0.00 | 10 | 1002.7 | |
| 20260506100002 | 21 | 0.0 | 0.0 | 0.00 | 0.00 | 0.00 | 10 | 1002.7 | |
| 20260506095502 | 21 | 0.0 | 0.0 | 0.00 | 0.00 | 0.00 | 10 | 1002.7 | |
| 20260506095002 | 21 | 0.0 | 0.0 | 0.00 | 0.00 | 0.00 | 10 | 1002.6 | |
| 20260506094501 | 21 | 0.0 | 0.0 | 0.00 | 0.00 | 0.00 | 10 | 1002.7 | |
| 20260506093502 | 21 | 0.0 | 0.0 | 0.00 | 0.00 | 0.00 | 10 | 1002.7 | |
| 20260506093002 | 21 | 0.0 | 0.0 | 0.00 | 0.00 | 0.00 | 10 | 1002.8 | |
| 20260506092501 | 21 | 0.0 | 0.0 | 0.00 | 0.00 | 0.00 | 10 | 1002.9 | |
| 20260506092002 | 21 | 0.0 | 0.0 | 0.00 | 0.00 | 0.00 | 10 | 1003.0 | |
| 20260506091501 | 20 | 0.0 | 0.0 | 0.00 | 0.00 | 0.00 | 10 | 1002.9 | |
| 20260506091002 | 20 | 0.0 | 0.0 | 0.00 | 0.00 | 0.00 | 10 | 1002.8 | |
| 20260506090502 | 21 | 0.0 | 0.0 | 0.00 | 0.00 | 0.00 | 10 | 1002.7 | |
| 20260506090002 | 21 | 0.0 | 0.0 | 0.00 | 0.00 | 0.00 | 10 | 1002.8 | |
| 20260506085502 | 20 | 0.0 | 0.0 | 0.00 | 0.00 | 0.00 | 10 | 1002.7 | |
| 20260506085002 | 20 | 0.0 | 0.0 | 0.00 | 0.00 | 0.00 | 10 | 1002.6 | |
| 20260506084503 | 21 | 0.0 | 0.0 | 0.00 | 0.00 | 0.00 | 10 | 1002.5 | |
| 20260506084002 | 20 | 0.0 | 0.0 | 0.00 | 0.00 | 0.00 | 10 | 1002.6 | |
| 20260506083501 | 20 | 0.0 | 0.0 | 0.00 | 0.00 | 0.00 | 10 | 1002.6 | |
| 20260506083002 | 20 | 0.0 | 0.0 | 0.00 | 0.00 | 0.00 | 10 | 1002.6 | |
| 20260506082502 | 20 | 0.0 | 0.0 | 0.00 | 0.00 | 0.00 | 10 | 1002.6 | |
| 20260506082002 | 20 | 0.0 | 0.0 | 0.00 | 0.00 | 0.00 | 10 | 1002.6 | |
| 20260506081001 | 20 | 0.0 | 0.0 | 0.00 | 0.00 | 0.00 | 10 | 1002.3 | |
| 20260506080502 | 20 | 0.0 | 0.0 | 0.00 | 0.00 | 0.00 | 10 | 1002.3 | |
| 20260506073501 | 18 | 0.0 | 0.0 | 0.00 | 0.00 | 0.00 | 10 | 1002.4 | |
| 20260506073002 | 18 | 0.0 | 0.0 | 0.00 | 0.00 | 0.00 | 10 | 1002.3 | |
| 20260506072502 | 18 | 0.0 | 0.0 | 0.00 | 0.00 | 0.00 | 10 | 1002.5 | |
| 20260506072002 | 18 | 0.0 | 0.0 | 0.00 | 0.00 | 0.00 | 10 | 1002.5 | |
| 20260506071001 | 18 | 0.0 | 0.0 | 0.00 | 0.00 | 0.00 | 10 | 1002.7 | |
| 20260506070502 | 18 | 0.0 | 0.0 | 0.00 | 0.00 | 0.00 | 10 | 1002.6 | |
| 20260506062501 | 15 | 0.0 | 0.0 | 0.00 | 0.00 | 0.00 | 97 | 1002.7 | |
| 20260506062002 | 15 | 0.0 | 0.0 | 0.00 | 0.00 | 0.00 | 92 | 1002.5 | |
| 20260506061502 | 15 | 0.0 | 0.0 | 0.00 | 0.00 | 0.00 | 80 | 1002.7 | |
| 20260506061002 | 15 | 0.0 | 0.0 | 0.00 | 0.00 | 0.00 | 76 | 1003.2 | |
| 20260506060502 | 15 | 0.0 | 0.0 | 0.00 | 0.00 | 0.00 | 76 | 1003.0 | |
| 20260506051002 | 11 | 0.0 | 0.0 | 0.00 | 0.00 | 0.00 | 99 | 1002.6 | |
| 20260506050502 | 11 | 0.0 | 0.0 | 0.00 | 0.00 | 0.00 | 10 | 1003.0 | |
| 20260506045002 | 10 | 0.0 | 0.0 | 0.00 | 0.00 | 0.00 | 91 | 1002.8 | |
| 20260506044502 | 10 | 0.0 | 0.0 | 0.00 | 0.00 | 0.00 | 92 | 1003.3 | |
| 20260506044002 | 10 | 0.0 | 0.0 | 0.00 | 0.00 | 0.00 | 31 | 1002.6 | |
| 20260506043502 | 9 | 0.0 | 0.0 | 0.00 | 0.00 | 0.00 | 36 | 1002.6 | |
| 20260506043002 | 9 | 0.0 | 0.0 | 0.00 | 0.00 | 0.00 | 36 | 1002.6 | |
| 20260506042502 | 9 | 0.0 | 0.0 | 0.00 | 0.00 | 0.00 | 36 | 1003.1 | |
| 20260506042001 | 8 | 0.0 | 0.0 | 0.00 | 0.00 | 0.00 | 34 | 1002.9 | |
| 20260506041502 | 8 | 0.0 | 0.0 | 0.00 | 0.00 | 0.00 | 34 | 1003.0 | |
| 20260506041001 | 8 | 0.0 | 0.0 | 0.00 | 0.00 | 0.00 | 33 | 1002.8 | |
| 20260506040501 | 8 | 0.0 | 0.0 | 0.00 | 0.00 | 0.00 | 32 | 1003.0 | |
| 20260506040002 | 8 | 0.0 | 0.0 | 0.00 | 0.00 | 0.00 | 36 | 1002.8 | |
| 20260506035502 | 8 | 0.0 | 0.0 | 0.00 | 0.00 | 0.00 | 38 | 1003.1 | |
| 20260506035002 | 8 | 0.0 | 0.0 | 0.00 | 0.00 | 0.00 | 32 | 1003.0 | |
| 20260506034502 | 8 | 0.0 | 0.0 | 0.00 | 0.00 | 0.00 | 34 | 1002.9 | |
| 20260506034002 | 8 | 0.0 | 0.0 | 0.00 | 0.00 | 0.00 | 36 | 1003.3 | |
| 20260506033002 | 8 | 0.0 | 0.0 | 0.00 | 0.00 | 0.00 | 34 | 1003.2 | |
| 20260506032502 | 8 | 0.0 | 0.0 | 0.00 | 0.00 | 0.00 | 33 | 1003.2 | |
| 20260506032001 | 8 | 0.0 | 0.0 | 0.00 | 0.00 | 0.00 | 34 | 1003.0 | |
| 20260506031502 | 8 | 0.0 | 0.0 | 0.00 | 0.00 | 0.00 | 36 | 1003.0 | |
| 20260506031002 | 8 | 0.0 | 0.0 | 0.00 | 0.00 | 0.00 | 34 | 1003.2 | |
| 20260506030502 | 8 | 0.0 | 0.0 | 0.00 | 0.00 | 0.00 | 31 | 1003.3 | |
| 20260506030002 | 8 | 0.0 | 0.0 | 0.00 | 0.00 | 0.00 | 88 | 1003.2 | |
| 20260506025502 | 8 | 0.0 | 0.0 | 0.00 | 0.00 | 0.00 | 31 | 1003.1 | |
| 20260506025002 | 8 | 0.0 | 0.0 | 0.00 | 0.00 | 0.00 | 40 | 1003.2 | |
| 20260506024501 | 9 | 0.0 | 0.0 | 0.00 | 0.00 | 0.00 | 37 | 1003.2 | |
| 20260506024002 | 8 | 0.0 | 0.0 | 0.00 | 0.00 | 0.00 | 38 | 1003.0 | |
| 20260506023501 | 8 | 0.0 | 0.0 | 0.00 | 0.00 | 0.00 | 38 | 1003.5 | |
| 20260506023002 | 8 | 0.0 | 0.0 | 0.00 | 0.00 | 0.00 | 38 | 1003.2 | |
| 20260506022501 | 8 | 0.0 | 0.0 | 0.00 | 0.00 | 0.00 | 46 | 1003.0 | |
| 20260506022001 | 8 | 0.0 | 0.0 | 0.00 | 0.00 | 0.00 | 48 | 1003.4 | |
| 20260506021501 | 8 | 0.0 | 0.0 | 0.00 | 0.00 | 0.00 | 42 | 1003.5 | |
| 20260506021001 | 8 | 0.0 | 0.0 | 0.00 | 0.00 | 0.00 | 42 | 1003.4 | |
| 20260506020502 | 8 | 0.0 | 0.0 | 0.00 | 0.00 | 0.00 | 44 | 1003.4 | |
| 20260506020001 | 9 | 0.0 | 0.0 | 0.00 | 0.00 | 0.00 | 41 | 1003.4 | |
| 20260506015502 | 8 | 0.0 | 0.0 | 0.00 | 0.00 | 0.00 | 46 | 1003.4 | |
| 20260506015002 | 9 | 0.0 | 0.0 | 0.00 | 0.00 | 0.00 | 45 | 1003.5 | |
| 20260506014502 | 9 | 0.0 | 0.0 | 0.00 | 0.00 | 0.00 | 49 | 1003.5 | |
| 20260506014002 | 9 | 0.0 | 0.0 | 0.00 | 0.00 | 0.00 | 47 | 1003.4 | |
| 20260506013502 | 9 | 0.0 | 0.0 | 0.00 | 0.00 | 0.00 | 48 | 1003.6 | |
| 20260506013001 | 9 | 0.0 | 0.0 | 0.00 | 0.00 | 0.00 | 49 | 1003.5 | |
| 20260506012502 | 9 | 0.0 | 0.0 | 0.00 | 0.00 | 0.00 | 56 | 1003.7 | |
| 20260506012002 | 10 | 0.0 | 0.0 | 0.00 | 0.00 | 0.00 | 55 | 1003.7 | |
| 20260506011502 | 10 | 0.0 | 0.0 | 0.00 | 0.00 | 0.00 | 59 | 1003.6 | |
| 20260506011002 | 10 | 0.0 | 0.0 | 0.00 | 0.00 | 0.00 | 58 | 1003.7 | |
| 20260506010502 | 10 | 0.0 | 0.0 | 0.00 | 0.00 | 0.00 | 58 | 1003.7 | |
| 20260506010002 | 10 | 0.0 | 0.0 | 0.00 | 0.00 | 0.00 | 63 | 1003.8 | |
| 20260506005502 | 10 | 0.0 | 0.0 | 0.00 | 0.00 | 0.00 | 62 | 1003.6 | |
| 20260506005002 | 10 | 0.0 | 0.0 | 0.00 | 0.00 | 0.00 | 62 | 1003.7 | |
| 20260506004501 | 10 | 0.0 | 0.0 | 0.00 | 0.00 | 0.00 | 68 | 1003.6 | |
| 20260506004002 | 10 | 0.0 | 0.0 | 0.00 | 0.00 | 0.00 | 69 | 1003.6 | |
| 20260506003501 | 10 | 0.0 | 0.0 | 0.00 | 0.00 | 0.00 | 66 | 1003.5 | |
| 20260506003001 | 10 | 0.0 | 0.0 | 0.00 | 0.00 | 0.00 | 68 | 1003.6 |